| time (UTC) | temp C | wind direction | speed KPH | gust KPH | rain 1hr cm | rain 24hr cm | rain mn cm | humidity % | barometer mb |
| 20260504081551 | 8 | 32 | 25.7 | 40.2 | 0.00 | 0.00 | 0.00 | 54 | 1014.6 |
| 20260504044604 | 13 | 37 | 29.0 | 37.0 | 0.00 | 0.00 | 0.00 | 38 | 1009.3 |
| 20260504043056 | 13 | 39 | 22.5 | 29.0 | 0.00 | 0.00 | 0.00 | 37 | 1009.0 |
| 20260504041552 | 14 | 38 | 19.3 | 30.6 | 0.00 | 0.00 | 0.00 | 36 | 1008.9 |
| 20260504040105 | 14 | 42 | 19.3 | 32.2 | 0.00 | 0.00 | 0.00 | 35 | 1008.6 |
| 20260504034611 | 15 | 41 | 25.7 | 30.6 | 0.00 | 0.00 | 0.00 | 35 | 1008.2 |
| 20260504033056 | 15 | 42 | 22.5 | 35.4 | 0.00 | 0.00 | 0.00 | 35 | 1007.9 |
| 20260504031551 | 15 | 40 | 22.5 | 33.8 | 0.00 | 0.00 | 0.00 | 34 | 1007.6 |
| 20260504030118 | 16 | 37 | 24.1 | 32.2 | 0.00 | 0.00 | 0.00 | 32 | 1007.1 |
| 20260504024555 | 16 | 42 | 16.1 | 22.5 | 0.00 | 0.00 | 0.00 | 28 | 1006.9 |
| 20260504023057 | 17 | 22 | 6.4 | 12.9 | 0.00 | 0.00 | 0.00 | 24 | 1006.7 |
| 20260504021553 | 18 | 18 | 12.9 | 17.7 | 0.00 | 0.00 | 0.00 | 22 | 1006.8 |
| 20260504020105 | 19 | 15 | 14.5 | 24.1 | 0.00 | 0.00 | 0.00 | 21 | 1006.8 |
| 20260504014548 | 20 | 11 | 17.7 | 27.4 | 0.00 | 0.00 | 0.00 | 20 | 1006.9 |
| 20260504013055 | 21 | 352 | 19.3 | 27.4 | 0.00 | 0.00 | 0.00 | 20 | 1006.9 |
| 20260504011553 | 21 | 352 | 22.5 | 30.6 | 0.00 | 0.00 | 0.00 | 20 | 1006.9 |
| 20260504010053 | 22 | 329 | 19.3 | 27.4 | 0.00 | 0.00 | 0.00 | 20 | 1007.0 |
| 20260504004558 | 22 | 345 | 20.9 | 30.6 | 0.00 | 0.00 | 0.00 | 19 | 1007.1 |
| 20260504003056 | 22 | 352 | 16.1 | 30.6 | 0.00 | 0.00 | 0.00 | 19 | 1007.2 |
| 20260504001606 | 22 | 330 | 20.9 | 25.7 | 0.00 | 0.00 | 0.00 | 19 | 1007.3 |
| 20260504000058 | 23 | 11 | 17.7 | 27.4 | 0.00 | 0.00 | 0.00 | 18 | 1007.4 |
| 20260503234556 | 23 | 325 | 17.7 | 29.0 | 0.00 | 0.00 | 0.00 | 18 | 1007.4 |
| 20260503233049 | 22 | 316 | 14.5 | 32.2 | 0.00 | 0.00 | 0.00 | 18 | 1007.5 |
| 20260503231557 | 22 | 324 | 20.9 | 30.6 | 0.00 | 0.00 | 0.00 | 18 | 1007.7 |
| 20260503230058 | 23 | 330 | 20.9 | 35.4 | 0.00 | 0.00 | 0.00 | 18 | 1007.8 |
| 20260503224553 | 23 | 311 | 16.1 | 33.8 | 0.00 | 0.00 | 0.00 | 18 | 1007.8 |
| 20260503223057 | 23 | 352 | 22.5 | 32.2 | 0.00 | 0.00 | 0.00 | 17 | 1008.0 |
| 20260503221559 | 23 | 342 | 17.7 | 32.2 | 0.00 | 0.00 | 0.00 | 18 | 1008.2 |
| 20260503220055 | 22 | 292 | 19.3 | 32.2 | 0.00 | 0.00 | 0.00 | 18 | 1008.5 |
| 20260503214604 | 22 | 257 | 11.3 | 24.1 | 0.00 | 0.00 | 0.00 | 19 | 1008.6 |
| 20260503213053 | 22 | 271 | 17.7 | 37.0 | 0.00 | 0.00 | 0.00 | 18 | 1008.8 |
| 20260503211556 | 22 | 334 | 22.5 | 35.4 | 0.00 | 0.00 | 0.00 | 18 | 1009.2 |
| 20260503210056 | 22 | 288 | 14.5 | 29.0 | 0.00 | 0.00 | 0.00 | 19 | 1009.4 |
| 20260503204603 | 22 | 328 | 14.5 | 27.4 | 0.00 | 0.00 | 0.00 | 20 | 1009.4 |
| 20260503203100 | 21 | 306 | 19.3 | 30.6 | 0.00 | 0.00 | 0.00 | 19 | 1009.9 |
| 20260503201558 | 21 | 322 | 20.9 | 30.6 | 0.00 | 0.00 | 0.00 | 20 | 1010.1 |
| 20260503200059 | 21 | 312 | 11.3 | 33.8 | 0.00 | 0.00 | 0.00 | 21 | 1010.3 |
| 20260503194559 | 21 | 352 | 19.3 | 41.8 | 0.00 | 0.00 | 0.00 | 21 | 1010.5 |
| 20260503193111 | 21 | 323 | 17.7 | 40.2 | 0.00 | 0.00 | 0.00 | 20 | 1010.7 |
| 20260503191553 | 21 | 338 | 17.7 | 29.0 | 0.00 | 0.00 | 0.00 | 20 | 1010.8 |
| 20260503190105 | 21 | 277 | 17.7 | 29.0 | 0.00 | 0.00 | 0.00 | 21 | 1010.9 |
| 20260503184548 | 21 | 277 | 17.7 | 30.6 | 0.00 | 0.00 | 0.00 | 20 | 1011.1 |
| 20260503183059 | 20 | 335 | 12.9 | 27.4 | 0.00 | 0.00 | 0.00 | 21 | 1011.2 |
| 20260503181553 | 21 | 273 | 17.7 | 27.4 | 0.00 | 0.00 | 0.00 | 20 | 1011.5 |
| 20260503180057 | 20 | 292 | 16.1 | 30.6 | 0.00 | 0.00 | 0.00 | 21 | 1011.6 |
| 20260503174551 | 20 | 257 | 4.8 | 27.4 | 0.00 | 0.00 | 0.00 | 24 | 1011.8 |
| 20260503173111 | 20 | 311 | 12.9 | 35.4 | 0.00 | 0.00 | 0.00 | 26 | 1012.0 |
| 20260503171553 | 19 | 289 | 11.3 | 19.3 | 0.00 | 0.00 | 0.00 | 27 | 1012.1 |
| 20260503150111 | 11 | 291 | 17.7 | 22.5 | 0.00 | 0.00 | 0.00 | 66 | 1012.9 |
| 20260503140119 | 8 | 290 | 8.0 | 14.5 | 0.00 | 0.00 | 0.00 | 78 | 1013.3 |
| 20260503110117 | 5 | 0 | 0.0 | 0.0 | 0.00 | 0.00 | 0.00 | 84 | 1013.7 |